Location: Bushey
(51.6333°N, 0.3667°W)
Time: 13:02:39
(UTC+00:00)

Helios 1A Rocket - Pass Details

Date: 03 March 2021
Orbit: 563 x 585 km, 98.3° (Epoch: 13 April)

Event Time Altitude Azimuth Distance (km) Brightness Sun altitude
Rises 19:14:57 0° 175° (S) 2,767 6.3 -14.6°
Reaches altitude 10° 19:17:08 10° 180° (S) 1,871 5.4 -15.0°
Maximum altitude 19:21:06 54° 258° (WSW) 696 3.7 -15.6°
Drops below altitude 10° 19:25:05 10° 337° (NNW) 1,876 6.0 -16.2°
Sets 19:27:17 0° 342° (NNW) 2,776 6.8 -16.5°
